Date String (YYYY-MM-DD hh:mm:ss) UTC,Instrument flags,Ambient pressure (hPa),Sample flow (lpm),Bypass flow (lpm),Sample temperature (°C),Ambient temperature (°C),ASC tube jacket temperature (°C),LED temperature (°C),Box temperature (°C),Sample RH (%),Span deviation,Mass concentration (μg/m³),Mass concentration (μg/m³),Mass concentration (μg/m³)
DateTimeUTC,F1_M11,P_M11,Q1_M11,Q2_M11,T1_M11,T2_M11,T3_M11,T4_M11,T5_M11,U1_M11,ZSPAN_M11,X0_M11,X2_M11,X1_M11
2021-12-27 11:00:00,,0817.1,4.98,0.00,20.9,20.7,00.0,30.2,22.3,10.5,0000.0,0005.95,0001.92,0001.04
2021-12-27 11:01:00,,0817.1,5.00,0.00,21.1,21.7,00.0,30.3,22.8,10.4,0000.0,0006.71,0001.94,0001.05
2021-12-27 11:02:00,,0817.1,5.01,0.00,21.3,22.5,00.0,30.3,23.2,10.3,0000.0,0006.24,0001.93,0001.04
2021-12-27 11:03:00,,0817.1,5.00,0.00,21.4,22.6,00.0,30.3,23.3,10.1,0000.0,0007.35,0001.96,0001.03
2021-12-27 11:04:00,,0817.0,5.01,0.00,21.4,22.1,00.0,30.4,23.1,10.1,0000.0,0007.39,0001.94,0001.01
2021-12-27 11:05:00,,0817.0,4.99,0.00,21.3,21.6,00.0,30.3,22.9,10.1,0000.0,0007.39,0001.94,0001.00
2021-12-27 11:06:00,,0816.9,4.99,0.00,21.2,21.2,00.0,30.3,22.6,10.1,0000.0,0007.39,0001.92,0000.99
2021-12-27 11:07:00,,0817.0,5.00,0.00,21.1,20.8,00.0,30.3,22.5,10.2,0000.0,0007.31,0001.89,0000.99
2021-12-27 11:08:00,,0817.0,5.01,0.00,21.0,20.6,00.0,30.3,22.3,10.2,0000.0,0007.32,0001.90,0000.96
2021-12-27 11:09:00,,0816.9,4.99,0.00,20.9,20.3,00.0,30.2,22.2,10.3,0000.0,0007.31,0001.88,0000.93
2021-12-27 11:10:00,,0817.0,4.99,0.00,20.8,20.2,00.0,30.2,22.1,10.3,0000.0,0007.36,0001.90,0000.92
2021-12-27 11:11:00,,0817.0,5.00,0.00,20.9,21.0,00.0,30.2,22.4,10.2,0000.0,0007.69,0001.92,0000.90
2021-12-27 11:12:00,,0817.0,5.01,0.00,21.1,21.9,00.0,30.2,22.9,10.1,0000.0,0007.86,0001.94,0000.89
2021-12-27 11:13:00,,0817.0,5.00,0.00,21.3,22.6,00.0,30.3,23.2,10.0,0000.0,0007.67,0001.99,0000.89
2021-12-27 11:14:00,,0817.0,5.01,0.00,21.4,22.4,00.0,30.3,23.2,10.0,0000.0,0007.16,0001.99,0000.89
2021-12-27 11:15:00,,0817.0,5.00,0.00,21.3,21.8,00.0,30.3,23.0,10.0,0000.0,0008.14,0002.01,0000.91
2021-12-27 11:16:00,,0817.0,5.00,0.00,21.2,21.4,00.0,30.3,22.8,10.0,0000.0,0008.12,0002.01,0000.92
2021-12-27 11:17:00,,0817.0,5.01,0.00,21.1,21.1,00.0,30.3,22.6,10.1,0000.0,0008.15,0002.02,0000.92
2021-12-27 11:18:00,,0816.9,4.99,0.00,21.1,20.8,00.0,30.3,22.4,10.0,0000.0,0008.19,0002.04,0000.91
2021-12-27 11:19:00,,0817.1,5.01,0.00,21.0,20.5,00.0,30.2,22.3,10.0,0000.0,0008.07,0001.98,0000.90
2021-12-27 11:20:00,,0817.2,4.99,0.00,20.9,20.4,00.0,30.2,22.2,10.0,0000.0,0008.60,0001.94,0000.89
2021-12-27 11:21:00,,0816.9,5.00,0.00,20.9,20.5,00.0,30.2,22.3,10.1,0000.0,0008.91,0001.99,0000.89
2021-12-27 11:22:00,,0816.9,4.99,0.00,21.0,21.5,00.0,30.2,22.7,10.0,0000.0,0008.92,0001.99,0000.89
2021-12-27 11:23:00,,0816.9,5.02,0.00,21.2,22.4,00.0,30.2,23.1,09.9,0000.0,0008.40,0002.04,0000.90
2021-12-27 11:24:00,,0817.0,4.99,0.00,21.4,22.4,00.0,30.3,23.2,09.9,0000.0,0008.38,0002.02,0000.91
2021-12-27 11:25:00,,0817.3,5.00,0.00,21.4,22.0,00.0,30.3,23.1,09.9,0000.0,0008.34,0001.98,0000.92
2021-12-27 11:26:00,,0817.2,5.01,0.00,21.3,21.7,00.0,30.3,23.0,09.9,0000.0,0008.20,0002.03,0000.93
2021-12-27 11:27:00,,0817.2,4.99,0.00,21.3,21.3,00.0,30.3,22.8,09.9,0000.0,0008.35,0002.04,0000.93
2021-12-27 11:28:00,,0817.1,5.01,0.00,21.2,21.0,00.0,30.3,22.6,09.9,0000.0,0008.39,0002.09,0000.93
2021-12-27 11:29:00,,0816.8,4.98,0.00,21.1,20.8,00.0,30.2,22.5,09.9,0000.0,0008.44,0002.06,0000.93
2021-12-27 11:30:00,,0816.8,5.01,0.00,21.0,20.5,00.0,30.2,22.4,10.0,0000.0,0008.64,0002.05,0000.93
2021-12-27 11:31:00,,0816.9,5.01,0.00,21.0,20.4,00.0,30.2,22.3,10.0,0000.0,0008.14,0002.08,0000.92
2021-12-27 11:32:00,,0816.8,4.99,0.00,20.9,20.4,00.0,30.2,22.3,10.0,0000.0,0007.86,0002.00,0000.92
2021-12-27 11:33:00,,0816.9,5.00,0.00,21.0,21.3,00.0,30.2,22.7,10.0,0000.0,0007.61,0001.93,0000.91
2021-12-27 11:34:00,,0816.8,4.99,0.00,21.2,22.2,00.0,30.3,23.1,09.9,0000.0,0007.48,0001.93,0000.91
2021-12-27 11:35:00,,0816.8,5.02,0.00,21.4,22.5,00.0,30.3,23.3,09.8,0000.0,0007.41,0001.93,0000.90
2021-12-27 11:36:00,,0816.8,5.00,0.00,21.4,22.2,00.0,30.3,23.2,09.7,0000.0,0007.11,0001.89,0000.88
2021-12-27 11:37:00,,0816.8,5.00,0.00,21.4,21.8,00.0,30.3,23.1,09.7,0000.0,0005.59,0001.82,0000.85
2021-12-27 11:38:00,,0816.8,5.00,0.00,21.4,21.5,00.0,30.3,23.0,09.8,0000.0,0004.96,0001.81,0000.83
2021-12-27 11:39:00,,0816.9,5.01,0.00,21.3,21.3,00.0,30.3,22.9,09.8,0000.0,0005.12,0001.75,0000.81
2021-12-27 11:40:00,,0816.9,5.00,0.00,21.3,21.1,00.0,30.3,22.8,09.8,0000.0,0005.62,0001.77,0000.80
2021-12-27 11:41:00,,0816.8,5.00,0.00,21.3,20.9,00.0,30.3,22.8,09.8,0000.0,0005.49,0001.82,0000.81
2021-12-27 11:42:00,,0816.8,5.01,0.00,21.2,20.7,00.0,30.3,22.7,09.8,0000.0,0006.16,0001.83,0000.82
2021-12-27 11:43:00,,0816.8,5.00,0.00,21.2,20.6,00.0,30.3,22.7,09.9,0000.0,0007.37,0001.84,0000.82
2021-12-27 11:44:00,,0816.8,5.00,0.00,21.2,20.6,00.0,30.3,22.7,09.9,0000.0,0007.94,0001.84,0000.82
2021-12-27 11:45:00,,0816.8,5.00,0.00,21.2,20.6,00.0,30.2,22.7,09.9,0000.0,0007.83,0001.80,0000.82
2021-12-27 11:46:00,,0816.9,5.00,0.00,21.2,20.6,00.0,30.2,22.7,09.9,0000.0,0007.66,0001.71,0000.81
2021-12-27 11:47:00,,0817.2,4.99,0.00,21.2,20.6,00.0,30.2,22.8,09.9,0000.0,0007.69,0001.74,0000.82
2021-12-27 11:48:00,,0816.9,5.00,0.00,21.2,21.1,00.0,30.3,22.9,09.8,0000.0,0007.63,0001.73,0000.83
2021-12-27 11:49:00,,0816.9,5.01,0.00,21.4,22.1,00.0,30.3,23.3,09.7,0000.0,0007.60,0001.73,0000.85
2021-12-27 11:50:00,,0817.0,5.01,0.00,21.6,22.9,00.0,30.4,23.6,09.7,0000.0,0007.84,0001.78,0000.86
2021-12-27 11:51:00,,0817.0,5.00,0.00,21.7,22.7,00.0,30.4,23.6,09.7,0000.0,0007.70,0001.81,0000.88
2021-12-27 11:52:00,,0816.9,5.00,0.00,21.7,22.4,00.0,30.4,23.6,09.8,0000.0,0007.92,0001.83,0000.89
2021-12-27 11:53:00,,0817.1,4.99,0.00,21.7,22.2,00.0,30.5,23.5,09.9,0000.0,0008.26,0001.87,0000.91
2021-12-27 11:54:00,,0816.9,5.00,0.00,21.7,21.9,00.0,30.5,23.5,09.8,0000.0,0007.58,0001.88,0000.92
2021-12-27 11:55:00,,0816.9,5.00,0.00,21.7,21.8,00.0,30.5,23.5,09.7,0000.0,0006.82,0001.96,0000.92
2021-12-27 11:56:00,,0817.1,4.99,0.00,21.7,21.6,00.0,30.5,23.4,09.7,0000.0,0007.61,0001.99,0000.93
2021-12-27 11:57:00,,0816.9,5.01,0.00,21.7,21.5,00.0,30.5,23.4,09.7,0000.0,0008.15,0002.01,0000.94
2021-12-27 11:58:00,,0817.0,4.99,0.00,21.7,21.4,00.0,30.5,23.4,09.7,0000.0,0008.51,0002.05,0000.95
2021-12-27 11:59:00,,0817.0,5.01,0.00,21.7,21.3,00.0,30.6,23.3,09.7,0000.0,0008.85,0002.09,0000.95
